Regional Weather Roundup
Issued by NWS Sterling, VA

Home | Current Version | Previous Version | Text Only | Print | Product List | Glossary Off
Versions: 1 2 3 4 5 6 7 8 9 10 11 12 13 14 15 16 17 18 19 20 21 22 23 24 25 26 27

000
ASUS41 KLWX 220810
RWRLWX

REGIONAL WEATHER ROUNDUP
NATIONAL WEATHER SERVICE BALTIMORE MD/WASHINGTON DC
300 AM EST SUN JAN 22 2017

Note: "FAIR" indicates few or no clouds below 12,000 feet
with no significant weather and/or obstructions to visibility.
 TC=TEMPERATURE CELSIUS

 * =Non NWS site. Station does not report precipitation (e.g. rain,
    snow, etc.), thunder, or fog.

DCZ001-MDZ009-015-VAZ040>042-051-053>054-220900-
WASHINGTON METRO

CITY           SKY/WX    TMP DP  RH WIND       PRES   REMARKS
WASHINGTON NAT LGT RAIN  47  47 100 NE8       29.72F FOG
DULLES         FOG       47  46  97 NE7       29.71S VSB 1/8
ANDREWS AFB    FOG       45  45 100 NE6       29.69F VSB 1/2
FT BELVOIR     CLOUDY    46  46 100 CALM      29.71S
QUANTICO       FOG       47  47 100 NE8       29.72S VSB 3/4
COLLEGE PARK*  CLOUDY    45  45 100 CALM      29.71F
LEESBURG*      FOG       48  48 100 NE6       29.72F VSB 1/2
GAITHERSBURG*  CLOUDY    45  43  93 NE6       29.75F VSB 3/4

$$

MDZ006>007-011-014-220900-
BALTIMORE METRO

CITY           SKY/WX    TMP DP  RH WIND       PRES   REMARKS
BWI AIRPORT    FOG       45  45 100 NE6       29.73S VSB 1/4
MD SCIENCE CTR   N/A     46  44  93 MISG      29.74S
ANNAPOLIS      LGT RAIN  45  43  93 NW3       29.73S VSB 1/2
FORT MEADE*    CLOUDY    45  43  93 CALM      29.73F VSB 1/2

$$

MDZ012-015-019>023-220900-
MARYLAND EASTERN SHORE

CITY           SKY/WX    TMP DP  RH WIND       PRES   REMARKS
OCEAN CITY     LGT RAIN  45  45 100 NE8       29.71F
SALISBURY      CLOUDY    47  47 100 NE8       29.69F
BAY BRIDGE AP* FOG       45  45 100 NE3       29.73S VSB 3/4
CAMBRIDGE*     CLOUDY    46  46 100 CALM      29.69F
EASTON*        CLOUDY    48  47  94 E6        29.75F FOG

$$

MDZ017>025-220900-
SOUTHERN MARYLAND

CITY           SKY/WX    TMP DP  RH WIND       PRES   REMARKS
PATUXENT RIVER CLOUDY    46  46 100 N13       29.68F FOG
ST INIGOES     CLOUDY    47  46  97 N8        29.67F FOG
LEONARDTOWN*   CLOUDY    45  45 100 CALM      29.71S VSB 1

$$

MDZ003>005-220900-
NORTH CENTRAL MARYLAND

CITY           SKY/WX    TMP DP  RH WIND       PRES   REMARKS
FREDERICK*     FOG       45  45 100 CALM      29.74F VSB 3/4
HAGERSTOWN APT FOG       45  43  93 NW3       29.72F VSB 1/4
WESTMINSTER*   FOG       45  45 100 CALM      29.72F VSB 1/2

$$

MDZ501>502-220900-
WESTERN MARYLAND

CITY           SKY/WX    TMP DP  RH WIND       PRES   REMARKS
OAKLAND*         N/A     50  37  62 CALM      29.68F
CUMBERLAND*    CLOUDY    45  45 100 N5        29.73F

$$

VAZ025>031-220900-
SHENANDOAH VALLEY

CITY           SKY/WX    TMP DP  RH WIND       PRES   REMARKS
WINCHESTER*    FOG       45  43  93 N3        29.71F VSB 1/4
FRONT ROYAL*   CLOUDY    45  45 100 CALM      29.70F VSB 1/4
LURAY*         CLOUDY    46  46 100 NE3       29.69F FOG
NEW MARKET*    CLOUDY    45  44  96 NE5       29.69F
STAUNTON*      CLOUDY    46  45  98 CALM      29.72R FOG
WAYNESBORO*    CLOUDY    47  46  95 NW5       29.70R

$$

WVZ021-048>050-054>055-220900-
EASTERN WEST VIRGINIA PANHANDLE

CITY           SKY/WX    TMP DP  RH WIND       PRES   REMARKS
MARTINSBURG    FOG       45  44  97 N3        29.72S VSB 1/4
PETERSBURG*    CLOUDY    46  46  97 CALM      29.73S FOG

$$

VAZ036>039-050-220900-
CENTRAL FOOTHILLS

CITY           SKY/WX    TMP DP  RH WIND       PRES   REMARKS
CHARLOTTESVILL FOG       50  48  93 NE5       29.70R VSB 1
CULPEPER*      FOG       49  49 100 CALM      29.71S VSB 1
ORANGE*        FOG       50  50 100 CALM      29.71S VSB 1/2
GORDONSVILLE*  FOG       48  48 100 NE6       29.69R VSB 1/2
WARRENTON*     FOG       49  47  91 CALM      29.71R VSB 1/2

$$

VAZ055>057-220900-
NORTH AND CENTRAL PIEDMONT

CITY           SKY/WX    TMP DP  RH WIND       PRES   REMARKS
FREDERICKSBRG* RAIN      48  48 100 N3        29.70S VSB 3/4
STAFFORD*      CLOUDY    47  47 100 N3        29.74S FOG

$$

NCZ024-NYZ072-PAZ021-071-VAZ022-071-220900-
OTHER REGIONAL OBSERVATIONS

CITY           SKY/WX    TMP DP  RH WIND       PRES   REMARKS
NEW YORK CITY  MOCLDY    44  44 100 CALM      29.77F FOG
PHILADELPHIA   FOG       45  44  97 E5        29.74F VSB 1/4
PITTSBURGH     MOCLDY    51  50  96 N6        29.67F
ROANOKE        CLOUDY    50  50 100 CALM      29.71R FOG
RICHMOND       LGT RAIN  49  49 100 NE10      29.66F FOG
RALEIGH        FOG       53  53 100 N6        29.65S VSB 1/8

$$

ANZ530>537-220900-
MARINE OBSERVATIONS

STATION/POSITION TIME  TEMP    WIND        PRES
                       AIR SEA DIR/SP/G
                 (UTC) (F)     (DEG/KT/KT) (MB)
THOMAS PT LIGHT  0800   43 40   20/  9/  9   N/A
BALT KEY BRIDGE  0748   44      30/  4/  5 1007.0S
COVE POINT       0748   43      10/  8/ 11 1006.1F
LEWISETTA        0742   45 44   30/  4/  6 1004.5F
SOLOMONS ISLAND  0748   47 41   30/  8/ 11   N/A
PINEY POINT      0748           40/  5/  6   N/A

$$





USA.gov is the U.S. government's official web portal to all federal, state and local government web resources and services.